Location: Dvur Kralove nad Labem
(50.4330°N, 15.8170°E)
Time: 15:02:20
(UTC+02:00)

ISS - Pass Details

Date: 26 May 2018
Orbit: 402 x 407 km, 51.6° (Epoch: 24 May)

Event Time Altitude Azimuth Distance (km) Brightness Sun altitude
Rises 01:12:47 0° 286° (WNW) 2,321 0.2 -18.4°
Reaches altitude 10° 01:14:53 10° 282° (WNW) 1,459 -0.9 -18.3°
Enters shadow 01:17:14 40° 258° (WSW) 612 -3.1 -18.3°
